"Pseudo-MPEC" for CCD74T2

Created 2024 Nov 30 13:31:08 UT using Find_Orb

Click here for an explanation of pseudo-MPECs

 
 Astrometry: 
     CCD74T2*1C2024 11 29.07989800 26 36.490+03 09 55.50   ~BT3l       VNEOCPG96
     CCD74T2 1C2024 11 29.08554800 26 39.240+03 05 23.70   ~BT3lx      VNEOCPG96
     CCD74T2 1C2024 11 29.09120200 26 42.090+03 00 40.60   ~BT3l       VNEOCPG96
     CCD74T2 1C2024 11 29.09685000 26 44.910+02 56 03.90   ~BT3l 19.90GVNEOCPG96
     CCD74T2 KC2024 11 29.12034100 26 56.353+02 36 57.92   ~BT42 19.89GVNEOCPI52
     CCD74T2 KC2024 11 29.12129300 26 56.839+02 36 12.06   ~BT42 19.99GVNEOCPI52
     CCD74T2 KC2024 11 29.12225000 26 57.293+02 35 25.62   ~BT42 19.86GVNEOCPI52
     CCD74T2 KC2024 11 29.12320300 26 57.739+02 34 37.85   ~BT42 19.15GVNEOCPI52
     CCD74T2 KB2024 11 29.19025 00 27 25.104+01 39 58.39   ~BT62 19.9 rZNEOCPH36
     CCD74T2 KB2024 11 29.19750 00 27 28.858+01 34 12.11   ~BT62 19.8 rZNEOCPH36
     CCD74T2 KC2024 11 29.20228500 27 35.989+01 31 07.97   ~BT5H 20.02GVNEOCPI52
     CCD74T2 KC2024 11 29.20318100 27 36.382+01 30 24.41   ~BT5H 19.35GVNEOCPI52
     CCD74T2 KC2024 11 29.20362800 27 36.533+01 30 03.49   ~BT5H 19.83GVNEOCPI52
     CCD74T2 KB2024 11 29.20476 00 27 32.566+01 28 26.36   ~BT62 19.8 rZNEOCPH36
     CCD74T2 0B2024 11 29.80229200 33 37.536-05 42 10.63   ~BTL2 19.7 VZNEOCPM49
     CCD74T2 0B2024 11 29.80889400 33 40.038-05 46 36.09   ~BTL2 19.9 VZNEOCPM49
     CCD74T2 KB2024 11 29.81336000 33 45.45 -05 57 16.1    ~BU7H 19.7 GVNEOCP204
     CCD74T2 0B2024 11 29.81544900 33 42.566-05 51 00.28   ~BTL2 19.9 VZNEOCPM49
     CCD74T2 KB2024 11 29.82314900 33 49.59 -06 03 48.7    ~BU7H       VNEOCP204
     CCD74T2 KC2024 11 29.89367500 34 18.54 -06 50 09.7    ~BTMH 19.4 GVNEOCP104
     CCD74T2 KC2024 11 29.90456200 34 23.21 -06 57 15.7    ~BTMH 19.0 GVNEOCP104
     CCD74T2 |C2024 11 30.07492900 35 57.630-08 37 39.30   ~BU7l 20.0 GVNEOCP807
     CCD74T2 |C2024 11 30.07897100 35 59.130-08 40 09.50   ~BU7l 19.9 GVNEOCP807
     CCD74T2 |C2024 11 30.08306000 36 00.640-08 42 40.90   ~BU7l 20.0 GVNEOCP807
     CCD74T2 |C2024 11 30.08702000 36 02.090-08 45 07.60   ~BU7l 19.9 GVNEOCP807

Station data:
(104) San Marcello Pistoiese  (N44.064178 E10.803750)  Italy.  Observers P.
   Bacci, M. Maestripieri. Measurers P. Bacci, L. Tesi, G. Fagioli. 0.60-m
   reflector + CCD.
(204) Schiaparelli Observatory  (N45.868292 E8.769720)  Italy.  Observer L.
   Buzzi. 0.60-m f/4.64 Newtonian + CCD0.84-m f/3.5 reflector + CCD.
(807) Cerro Tololo Observatory, La Serena  (S30.169133 W70.805900)  Chile.
   Observer R. Holmes. 0.61-m f/6.5 astrograph + CCD.
(G96) Mt. Lemmon Survey  (N32.442729 W110.788720)  US/Arizona.  Observer E.
   J. Christensen. 1.5-m reflector + 10K CCD.
(H36) Sandlot Observatory, Scranton  (N38.797718 W95.706550)  US/Kansas.
   Observer G. Hug. 0.56-m reflector + CCD.
(I52) Steward Observatory, Mt. Lemmon Station  (N32.442570 W110.788920)
   US/Arizona.  Observers T. A. Pruyne, B. M. Africano, E. J. Christensen, G.
   A. Farneth, D. C. Fuls, A. R. Gibbs, A. D. Grauer, H. Gröller, J. A.
   Johnson, R. A. Kowalski, S. M. Larson, G. J. Leonard, D. Rankin, R. L.
   Seaman, F. C. Shelly, K. W. Wierzchoś. 1.0-m prime focus + CCD.
(M49) IAS Remote Observatory, Hakos  (S23.236549 E16.361720)  Namibia.
   Observers D. Husar, M. Junius. Measurer D. Husar. 0.25-m f/4.6 reflector +
   CCD.

Orbital elements:  CCD74T2
   Perihelion 2025 Apr 18.65731 +/- 0.0139 TT = 15:46:31 (JD 2460784.15731)
Epoch 2024 Nov 30.0 TT = JDT 2460644.5   Earth MOID: 0.0095   Ve: 0.0367
M 181.95166275 +/- 0.014            (J2000 ecliptic)             AutoNEOCP
n   1.27489446 +/- 0.000221         Peri.  359.43980 +/- 0.010
a   0.84233831 +/- 9.71e-5          Node   246.07451 +/- 0.0006
e   0.1824549 +/- 0.000142          Incl.   16.53037 +/- 0.014
P   0.773/282.371d         H 26.33  G  0.15   U  7.1
q 0.68864956 +/- 0.000199    Q 0.99602707 +/- 7.12e-6
24 of 25 observations 2024 Nov. 29-30 (24.2 hr); mean residual 0".45
Residuals in arcseconds: 
241129 G96  .23+  .69-    241129 H36  .42+  .23+    241129 204  .22+  .28-    
241129 G96( .80-  5.0+)   241129 I52  .60+  .77+    241129 104  .74+  .37+    
241129 G96  .15-  .74-    241129 I52  .06-  .05-    241129 104  .39+  .78-    
241129 G96  .31+  .74-    241129 I52  1.1-  .35+    241130 807  .21-  .27+    
241129 I52  .29-  .27+    241129 H36  .55-  .90+    241130 807  .11-  .09+    
241129 I52  .07+  .76+    241129 M49  .10+  .39-    241130 807  .18-  .24+    
241129 I52  .08-  .90+    241129 M49  .32-  .38+    241130 807  .48-  .09+    
241129 I52  .32-  .49-    241129 204  .14-  .19-    
241129 H36  .28+  .09-    241129 M49  .12-  .05-    

Ephemerides (geocentric):
Date (UTC) HH   RA             Dec           delta  r     elong  mag " sig PA
---- --------  ------------   ------------  ------ ------ -----  --- --------
2024 11 30 14  00 40 10.002   -13 31 43.20  .02324 0.9959 114.1 20.4 .525 158
2024 11 30 15  00 40 28.914   -13 53 39.07  .02339 0.9959 114.0 20.5 .565 158
2024 11 30 16  00 40 47.653   -14 15 18.10  .02354 0.9959 113.8 20.5 .606 159
2024 11 30 17  00 41 06.222   -14 36 40.50  .02369 0.9959 113.6 20.5 .647 159
2024 11 30 18  00 41 24.623   -14 57 46.49  .02384 0.9959 113.5 20.5 .689 160
2024 11 30 19  00 41 42.858   -15 18 36.27  .02399 0.9959 113.3 20.5 .731 160
2024 11 30 20  00 42 00.930   -15 39 10.05  .02414 0.9959 113.1 20.6 .774 160
2024 11 30 21  00 42 18.841   -15 59 28.05  .02430 0.9959 113.0 20.6 .817 161
2024 11 30 22  00 42 36.592   -16 19 30.48  .02445 0.9959 112.8 20.6 .860 161
2024 11 30 23  00 42 54.188   -16 39 17.55  .02461 0.9959 112.7 20.6 .904 161
2024 12 01 00  00 43 11.628   -16 58 49.46  .02477 0.9959 112.5 20.6 .947 162
2024 12 01 01  00 43 28.916   -17 18 06.43  .02492 0.9958 112.3 20.6 0.99 162
2024 12 01 02  00 43 46.054   -17 37 08.65  .02508 0.9958 112.2 20.7 1.04 162
2024 12 01 03  00 44 03.043   -17 55 56.34  .02524 0.9958 112.0 20.7 1.08 162
2024 12 01 04  00 44 19.885   -18 14 29.69  .02540 0.9958 111.9 20.7 1.12 162
2024 12 01 05  00 44 36.584   -18 32 48.92  .02556 0.9958 111.7 20.7 1.17 162
2024 12 01 06  00 44 53.139   -18 50 54.21  .02572 0.9958 111.6 20.7 1.21 163
2024 12 01 07  00 45 09.554   -19 08 45.77  .02589 0.9958 111.4 20.8 1.26 163
2024 12 01 08  00 45 25.830   -19 26 23.80  .02605 0.9958 111.3 20.8 1.30 163
2024 12 01 09  00 45 41.969   -19 43 48.49  .02621 0.9958 111.1 20.8 1.35 163
2024 12 01 10  00 45 57.973   -20 01 00.02  .02638 0.9958 111.0 20.8 1.39 163
2024 12 01 11  00 46 13.843   -20 17 58.61  .02654 0.9958 110.8 20.8 1.44 163
2024 12 01 12  00 46 29.581   -20 34 44.42  .02671 0.9958 110.7 20.8 1.48 163
2024 12 01 13  00 46 45.190   -20 51 17.65  .02687 0.9958 110.5 20.9 1.53 163
2024 12 01 14  00 47 00.670   -21 07 38.48  .02704 0.9958 110.4 20.9 1.57 163
2024 12 01 15  00 47 16.023   -21 23 47.10  .02721 0.9958 110.2 20.9 1.62 163
2024 12 01 16  00 47 31.251   -21 39 43.69  .02738 0.9957 110.1 20.9 1.66 164
2024 12 01 17  00 47 46.355   -21 55 28.42  .02754 0.9957 110.0 20.9 1.71 164
2024 12 01 18  00 48 01.338   -22 11 01.47  .02771 0.9957 109.8 20.9 1.75 164
2024 12 01 19  00 48 16.200   -22 26 23.01  .02788 0.9957 109.7 21.0 1.80 164
2024 12 01 20  00 48 30.943   -22 41 33.22  .02805 0.9957 109.5 21.0 1.84 164
2024 12 01 21  00 48 45.569   -22 56 32.26  .02823 0.9957 109.4 21.0 1.89 164
2024 12 01 22  00 49 00.079   -23 11 20.30  .02840 0.9957 109.3 21.0 1.93 164
2024 12 01 23  00 49 14.474   -23 25 57.51  .02857 0.9957 109.1 21.0 1.97 164
2024 12 02 00  00 49 28.756   -23 40 24.05  .02874 0.9957 109.0 21.0 2.02 164
2024 12 02 01  00 49 42.926   -23 54 40.07  .02891 0.9957 108.9 21.1 2.06 164
2024 12 02 02  00 49 56.986   -24 08 45.74  .02909 0.9957 108.7 21.1 2.10 164
2024 12 02 03  00 50 10.937   -24 22 41.20  .02926 0.9957 108.6 21.1 2.15 164
2024 12 02 04  00 50 24.781   -24 36 26.62  .02944 0.9957 108.5 21.1 2.19 164
2024 12 02 05  00 50 38.518   -24 50 02.15  .02961 0.9956 108.4 21.1 2.23 164
2024 12 02 06  00 50 52.149   -25 03 27.93  .02979 0.9956 108.2 21.2 2.28 164
2024 12 02 07  00 51 05.677   -25 16 44.10  .02996 0.9956 108.1 21.2 2.32 164
2024 12 02 08  00 51 19.103   -25 29 50.82  .03014 0.9956 108.0 21.2 2.36 164
2024 12 02 09  00 51 32.427   -25 42 48.23  .03032 0.9956 107.9 21.2 2.40 164
2024 12 02 10  00 51 45.651   -25 55 36.46  .03049 0.9956 107.7 21.2 2.44 164
2024 12 02 11  00 51 58.776   -26 08 15.66  .03067 0.9956 107.6 21.2 2.49 164
2024 12 02 12  00 52 11.803   -26 20 45.95  .03085 0.9956 107.5 21.2 2.53 164
2024 12 02 13  00 52 24.733   -26 33 07.48  .03103 0.9956 107.4 21.3 2.57 164